Location: Maccacari
(45.1333°N, 11.1333°E)
Time: 07:17:34
(UTC+00:00)

SR - Pass Details

Date: 27 January 2021
Orbit: 573 x 882 km, 66.7° (Epoch: 04 March)

Event Time Altitude Azimuth Distance (km) Brightness Sun altitude
Exits shadow 04:45:23 23° 333° (NNW) 1,562 ? -20.4°
Drops below altitude 10° 04:48:59 10° 14° (NNE) 2,350 ? -19.7°
Sets 04:51:59 0° 28° (NNE) 3,338 ? -19.2°
